Regional Weather Roundup
Issued by NWS

Home | Current Version | Previous Version | Graphics & Text | Print | Product List | Glossary On
Versions: 1 2 3 4 5 6 7 8 9 10 11 12 13 14 15 16 17 18 19 20 21 22 23 24 25 26 27 28 29 30 31 32 33 34 35 36 37 38 39 40 41 42 43 44 45 46 47 48 49 50
000
ASUS43 KLMK 222310
RWRKY
KENTUCKY REGIONAL WEATHER ROUNDUP
NATIONAL WEATHER SERVICE LOUISVILLE KY
700 PM EDT SAT APR 22 2017

NOTE "FAIR" INDICATES FEW OR NO CLOUDS BELOW 12,000 FEET
WITH NO SIGNIFICANT WEATHER AND/OR OBSTRUCTIONS TO VISIBILITY.

KYZ001>023-026-027-061>063-070>075-230000-
WESTERN AND SOUTH CENTRAL KENTUCKY

CITY           SKY/WX    TMP DP  RH WIND       PRES   REMARKS
PADUCAH        PTSUNNY   57  47  69 NE15G21   29.93S
HENDERSON      CLOUDY    55  44  66 NE16      29.97F
OWENSBORO      CLOUDY    56  46  69 NE12G17   29.96R
HOPKINSVILLE   CLOUDY    54  50  87 NE13G22   29.90S
BOWLING GREEN  CLOUDY    54  50  86 NE18      29.92F
GLASGOW        CLOUDY    53  51  95 NE10G17   29.92S
$$

KYZ024-025-028>034-038-045-046-053-230000-
NORTH CENTRAL KENTUCKY

CITY           SKY/WX    TMP DP  RH WIND       PRES   REMARKS
LOUISVILLE/SDF PTSUNNY   54  41  61 NE17G23   29.98S
LOUISVILLE/LOU CLOUDY    54  40  59 NE10      29.99S
FORT KNOX      CLOUDY    53  45  74 N10       29.95S
$$

KYZ035>037-039>044-047>052-055>060-089>105-230000-
NORTHEAST KENTUCKY

CITY           SKY/WX    TMP DP  RH WIND       PRES   REMARKS
LEXINGTON      PTSUNNY   52  43  71 NE15      29.97R
COVINGTON      CLOUDY    56  38  50 NE17G25   30.00F
FRANKFORT      SUNNY     54  40  59 NE10G18   29.97R
$$

KYZ054-064>069-076>088-106>120-230000-
SOUTHEAST KENTUCKY

CITY           SKY/WX    TMP DP  RH WIND       PRES   REMARKS
JACKSON        LGT RAIN  47  46  97 VRB3      29.97F FOG
LONDON         CLOUDY    49  45  86 E8        29.93F
SOMERSET       CLOUDY    48  48 100 E3        29.97R
MIDDLESBORO    RAIN      55  54  98 N6        29.95R
MONTICELLO     RAIN      50  48  93 VRB3      29.95S
$$





USA.gov is the U.S. government's official web portal to all federal, state and local government web resources and services.